TimeCDT,TemperatureF,Dew PointF,Humidity,Sea Level PressureIn,VisibilityMPH,Wind Direction,Wind SpeedMPH,Gust SpeedMPH,PrecipitationIn,Events,Conditions,WindDirDegrees,DateUTC
12:53 AM,37.9,25.0,60,30.19,10.0,NNE,3.5,-,N/A,,Overcast,20,2012-11-03 05:53:00
1:53 AM,37.9,25.0,60,30.19,10.0,ENE,4.6,-,N/A,,Overcast,60,2012-11-03 06:53:00
2:53 AM,37.9,25.0,60,30.19,10.0,NE,3.5,-,N/A,,Overcast,50,2012-11-03 07:53:00
3:53 AM,37.9,25.0,60,30.18,10.0,ENE,3.5,-,N/A,,Overcast,60,2012-11-03 08:53:00
4:53 AM,37.9,25.0,60,30.19,10.0,East,5.8,-,N/A,,Overcast,80,2012-11-03 09:53:00
5:53 AM,37.9,25.0,60,30.20,10.0,ENE,3.5,-,N/A,,Overcast,60,2012-11-03 10:53:00
6:53 AM,37.0,25.0,62,30.21,10.0,NE,3.5,-,N/A,,Overcast,50,2012-11-03 11:53:00
7:53 AM,37.0,25.0,62,30.22,10.0,ENE,4.6,-,N/A,,Overcast,60,2012-11-03 12:53:00
8:53 AM,37.0,25.0,62,30.23,10.0,ENE,6.9,-,N/A,,Overcast,70,2012-11-03 13:53:00
9:53 AM,37.0,25.0,62,30.24,10.0,East,4.6,-,N/A,,Overcast,80,2012-11-03 14:53:00
10:53 AM,39.0,25.0,57,30.24,10.0,East,4.6,-,N/A,,Overcast,90,2012-11-03 15:53:00
11:53 AM,39.0,26.1,60,30.25,10.0,ESE,4.6,-,N/A,,Overcast,110,2012-11-03 16:53:00
12:53 PM,39.9,26.1,58,30.24,10.0,Calm,Calm,-,N/A,,Overcast,0,2012-11-03 17:53:00
1:53 PM,41.0,27.0,57,30.24,10.0,Calm,Calm,-,N/A,,Overcast,0,2012-11-03 18:53:00
2:53 PM,42.1,27.0,55,30.23,10.0,Calm,Calm,-,N/A,,Overcast,0,2012-11-03 19:53:00
3:53 PM,43.0,26.1,51,30.22,10.0,Calm,Calm,-,N/A,,Overcast,0,2012-11-03 20:53:00
4:53 PM,43.0,27.0,53,30.22,10.0,East,4.6,-,N/A,,Overcast,100,2012-11-03 21:53:00
5:53 PM,42.1,27.0,55,30.22,10.0,ENE,5.8,-,N/A,,Overcast,70,2012-11-03 22:53:00
6:53 PM,42.1,27.0,55,30.23,10.0,East,4.6,-,N/A,,Overcast,80,2012-11-03 23:53:00
7:53 PM,41.0,26.1,55,30.23,10.0,East,5.8,-,N/A,,Overcast,80,2012-11-04 00:53:00
8:53 PM,41.0,27.0,57,30.23,10.0,ENE,4.6,-,N/A,,Overcast,60,2012-11-04 01:53:00
9:53 PM,41.0,27.0,57,30.24,10.0,ENE,4.6,-,N/A,,Overcast,70,2012-11-04 02:53:00
10:53 PM,39.9,28.0,63,30.24,10.0,ENE,4.6,-,N/A,,Overcast,60,2012-11-04 03:53:00
11:53 PM,39.9,28.0,63,30.25,10.0,Calm,Calm,-,N/A,,Overcast,0,2012-11-04 04:53:00